• In Uzbekistan
  • List of Countries
  • For 7 days
  • Water Temperature
  • Satellite Maps
  • Weather Map
  • Weather Widgets
  • user-avatar
    Login

    Hourly Weather Balho

    Today, 18 January, Thursday

    Time Temperature Precipitation Wind Pressure Humidity
    00:00 +26°C° 0 mm 3 mps 737 mmHg 41%
    01:00 +26°C° 0 mm 3 mps 737 mmHg 45%
    02:00 +25°C° 0 mm 3 mps 737 mmHg 48%
    03:00 +25°C° 0 mm 3 mps 736 mmHg 52%
    04:00 +24°C° 0 mm 2 mps 736 mmHg 55%
    05:00 +24°C° 0 mm 2 mps 737 mmHg 58%
    06:00 +23°C° 0 mm 2 mps 737 mmHg 62%
    07:00 +24°C° 0 mm 2 mps 737 mmHg 58%
    08:00 +25°C° 0 mm 2 mps 738 mmHg 54%
    09:00 +26°C° 0 mm 3 mps 738 mmHg 50%
    10:00 +28°C° 0 mm 3 mps 738 mmHg 43%
    11:00 +29°C° 0 mm 3 mps 738 mmHg 35%
    12:00 +31°C° 0 mm 3 mps 738 mmHg 27%
    13:00 +32°C° 0 mm 2 mps 738 mmHg 25%
    14:00 +34°C° 0 mm 2 mps 737 mmHg 23%
    15:00 +34°C° 0 mm 2 mps 736 mmHg 21%
    16:00 +34°C° 0 mm 3 mps 736 mmHg 24%
    17:00 +33°C° 0 mm 3 mps 736 mmHg 26%
    18:00 +33°C° 0 mm 4 mps 736 mmHg 28%
    19:00 +32°C° 0 mm 4 mps 737 mmHg 34%
    20:00 +29°C° 0 mm 4 mps 737 mmHg 40%
    21:00 +28°C° 0 mm 4 mps 737 mmHg 45%
    22:00 +28°C° 0 mm 4 mps 737 mmHg 48%
    23:00 +27°C° 0 mm 4 mps 737 mmHg 51%

    Tomorrow, 19 January, Friday

    Time Temperature Precipitation Wind Pressure Humidity
    00:00 +26°C° 0 mm 3 mps 737 mmHg 54%
    01:00 +26°C° 0 mm 3 mps 737 mmHg 57%
    02:00 +25°C° 0 mm 3 mps 737 mmHg 60%
    03:00 +25°C° 0 mm 3 mps 736 mmHg 64%
    04:00 +24°C° 0 mm 3 mps 737 mmHg 66%
    05:00 +24°C° 0 mm 2 mps 737 mmHg 69%
    06:00 +24°C° 0 mm 2 mps 737 mmHg 71%
    07:00 +25°C° 0 mm 3 mps 738 mmHg 67%
    08:00 +25°C° 0 mm 3 mps 739 mmHg 62%
    09:00 +26°C° 0 mm 3 mps 739 mmHg 57%
    10:00 +28°C° 0 mm 3 mps 739 mmHg 50%
    11:00 +29°C° 0 mm 3 mps 739 mmHg 43%
    12:00 +31°C° 0 mm 2 mps 739 mmHg 36%
    13:00 +31°C° 0 mm 2 mps 738 mmHg 34%
    14:00 +32°C° 0 mm 2 mps 737 mmHg 32%
    15:00 +34°C° 0 mm 2 mps 736 mmHg 30%
    16:00 +33°C° 0 mm 3 mps 737 mmHg 32%
    17:00 +33°C° 0 mm 3 mps 737 mmHg 34%
    18:00 +33°C° 0 mm 4 mps 737 mmHg 36%
    19:00 +32°C° 0 mm 4 mps 737 mmHg 41%
    20:00 +30°C° 0 mm 4 mps 738 mmHg 47%
    21:00 +28°C° 0 mm 4 mps 738 mmHg 53%
    22:00 +28°C° 0 mm 4 mps 738 mmHg 57%
    23:00 +27°C° 0 mm 3 mps 738 mmHg 60%

    Day after tomorrow, 20 January, Saturday

    Time Temperature Precipitation Wind Pressure Humidity
    00:00 +27°C° 0 mm 3 mps 738 mmHg 63%
    01:00 +26°C° 0 mm 3 mps 738 mmHg 66%
    02:00 +26°C° 0 mm 2 mps 738 mmHg 68%
    03:00 +26°C° 0 mm 2 mps 738 mmHg 71%
    04:00 +25°C° 0 mm 2 mps 738 mmHg 72%
    05:00 +25°C° 0 mm 2 mps 738 mmHg 74%
    06:00 +25°C° 0 mm 1 mps 739 mmHg 76%
    07:00 +25°C° 0 mm 1 mps 739 mmHg 72%
    08:00 +26°C° 0 mm 1 mps 740 mmHg 68%
    09:00 +27°C° 0 mm 1 mps 741 mmHg 65%
    10:00 +28°C° 0 mm 1 mps 741 mmHg 57%
    11:00 +29°C° 0 mm 1 mps 740 mmHg 49%
    12:00 +31°C° 0 mm 1 mps 740 mmHg 41%
    13:00 +31°C° 0 mm 1 mps 739 mmHg 37%
    14:00 +32°C° 0 mm 2 mps 738 mmHg 34%
    15:00 +34°C° 0 mm 2 mps 737 mmHg 31%
    16:00 +34°C° 0 mm 3 mps 737 mmHg 33%
    17:00 +34°C° 0 mm 4 mps 738 mmHg 35%
    18:00 +33°C° 0 mm 5 mps 738 mmHg 37%
    19:00 +32°C° 0 mm 5 mps 738 mmHg 42%
    20:00 +30°C° 0 mm 5 mps 739 mmHg 48%
    21:00 +29°C° 0 mm 5 mps 740 mmHg 54%
    22:00 +28°C° 0 mm 4 mps 739 mmHg 56%
    23:00 +28°C° 0 mm 4 mps 739 mmHg 59%

    21 January, Sunday

    Time Temperature Precipitation Wind Pressure Humidity
    00:00 +27°C° 0 mm 3 mps 739 mmHg 61%
    01:00 +27°C° 0 mm 3 mps 739 mmHg 63%
    02:00 +26°C° 0 mm 3 mps 738 mmHg 65%
    03:00 +26°C° 0 mm 2 mps 738 mmHg 67%
    04:00 +26°C° 0 mm 2 mps 738 mmHg 69%
    05:00 +25°C° 0 mm 2 mps 739 mmHg 70%
    06:00 +25°C° 0 mm 1 mps 739 mmHg 72%
    07:00 +26°C° 0 mm 1 mps 740 mmHg 69%
    08:00 +26°C° 0 mm 1 mps 740 mmHg 66%
    09:00 +27°C° 0 mm 1 mps 741 mmHg 63%
    10:00 +28°C° 0 mm 1 mps 741 mmHg 56%
    11:00 +29°C° 0 mm 1 mps 740 mmHg 49%
    12:00 +31°C° 0 mm 1 mps 740 mmHg 42%
    13:00 +32°C° 0 mm 1 mps 739 mmHg 39%
    14:00 +32°C° 0 mm 2 mps 738 mmHg 36%
    15:00 +34°C° 0 mm 2 mps 737 mmHg 33%
    16:00 +34°C° 0 mm 3 mps 737 mmHg 34%
    17:00 +34°C° 0 mm 3 mps 737 mmHg 35%
    18:00 +34°C° 0 mm 4 mps 737 mmHg 35%
    19:00 +33°C° 0 mm 4 mps 738 mmHg 38%
    20:00 +32°C° 0 mm 4 mps 738 mmHg 41%
    21:00 +30°C° 0 mm 5 mps 739 mmHg 44%
    22:00 +29°C° 0 mm 4 mps 739 mmHg 46%
    23:00 +29°C° 0 mm 4 mps 738 mmHg 48%

    22 January, Monday

    Time Temperature Precipitation Wind Pressure Humidity
    00:00 +28°C° 0 mm 3 mps 738 mmHg 49%
    01:00 +27°C° 0 mm 3 mps 738 mmHg 52%
    02:00 +27°C° 0 mm 3 mps 737 mmHg 55%
    03:00 +26°C° 0 mm 2 mps 737 mmHg 57%
    04:00 +26°C° 0 mm 2 mps 737 mmHg 59%
    05:00 +25°C° 0 mm 2 mps 737 mmHg 61%
    06:00 +25°C° 0 mm 2 mps 738 mmHg 63%
    07:00 +26°C° 0 mm 3 mps 738 mmHg 58%
    08:00 +27°C° 0 mm 3 mps 739 mmHg 53%
    09:00 +28°C° 0 mm 3 mps 740 mmHg 47%
    10:00 +29°C° 0 mm 4 mps 739 mmHg 42%
    11:00 +32°C° 0 mm 4 mps 739 mmHg 36%
    12:00 +33°C° 0 mm 5 mps 738 mmHg 30%
    13:00 +34°C° 0 mm 5 mps 737 mmHg 29%
    14:00 +34°C° 0 mm 5 mps 737 mmHg 28%
    15:00 +35°C° 0 mm 5 mps 736 mmHg 27%
    16:00 +34°C° 0 mm 5 mps 736 mmHg 29%
    17:00 +33°C° 0 mm 5 mps 736 mmHg 32%
    18:00 +33°C° 0 mm 5 mps 736 mmHg 34%
    19:00 +32°C° 0 mm 5 mps 737 mmHg 39%
    20:00 +30°C° 0 mm 5 mps 737 mmHg 44%
    21:00 +28°C° 0 mm 5 mps 737 mmHg 49%
    22:00 +28°C° 0 mm 5 mps 737 mmHg 52%
    23:00 +27°C° 0 mm 4 mps 737 mmHg 55%

    23 January, Tuesday

    Time Temperature Precipitation Wind Pressure Humidity
    00:00 +27°C° 0 mm 4 mps 736 mmHg 58%
    01:00 +26°C° 0 mm 4 mps 736 mmHg 61%
    02:00 +26°C° 0 mm 3 mps 736 mmHg 64%
    03:00 +25°C° 0 mm 3 mps 735 mmHg 66%
    04:00 +25°C° 0 mm 3 mps 736 mmHg 69%
    05:00 +24°C° 0 mm 3 mps 736 mmHg 71%
    06:00 +24°C° 0 mm 3 mps 736 mmHg 74%
    07:00 +25°C° 0 mm 3 mps 737 mmHg 68%
    08:00 +26°C° 0 mm 3 mps 737 mmHg 63%
    09:00 +27°C° 0 mm 3 mps 738 mmHg 58%
    10:00 +29°C° 0 mm 3 mps 738 mmHg 50%
    11:00 +30°C° 0 mm 3 mps 737 mmHg 41%
    12:00 +33°C° 0 mm 3 mps 737 mmHg 33%
    13:00 +34°C° 0 mm 3 mps 736 mmHg 31%
    14:00 +35°C° 0 mm 3 mps 735 mmHg 28%
    15:00 +35°C° 0 mm 3 mps 735 mmHg 26%
    16:00 +35°C° 0 mm 4 mps 735 mmHg 29%
    17:00 +34°C° 0 mm 4 mps 735 mmHg 32%
    18:00 +33°C° 0 mm 5 mps 735 mmHg 35%
    19:00 +32°C° 0 mm 5 mps 735 mmHg 42%
    20:00 +30°C° 0 mm 5 mps 736 mmHg 48%
    21:00 +28°C° 0 mm 5 mps 736 mmHg 55%
    22:00 +28°C° 0 mm 5 mps 736 mmHg 57%
    23:00 +27°C° 0 mm 5 mps 736 mmHg 60%
    Show more